Location: Unspecified
(0.0000°N, 0.0000°E)
Time: 16:16:49
(UTC+00:00)

Altair - Pass Details

Date: 24 November 2019
Orbit: 1502 x 1682 km, 47.2° (Epoch: 12 December)

Event Time Altitude Azimuth Distance (km) Brightness Sun altitude
Rises 12:28:47 0° 282° (WNW) 4,798 10.2 67.0°
Reaches altitude 10° 12:33:21 10° 263° (W) 3,849 9.9 66.5°
Maximum altitude 12:39:16 17° 225° (SW) 3,331 10.0 65.8°
Drops below altitude 10° 12:45:18 10° 188° (S) 3,922 10.1 64.9°
Sets 12:50:07 0° 169° (S) 4,927 10.4 64.2°
